When you browse on this site, cookies collect data to enhance your experience and personalize the content and advertising you see.
Visit our Privacy Policy to learn more. By continuing to use the site, you agree to this use of cookies and data.
  • En España
  • Lista de países
  • Para 7 días
  • Temperatura del agua
  • El tiempo en el mapa
  • Informadores
  • user-avatar
    Iniciar sesión

    Tiempo cada hora Kyzylorda

    Hoy, 4 Junio, Jueves

    Tiempo Temperatura Precipitaciones Viento Presión Humedad
    00:00 +34°C° 0 mm 3 mps 741 mmHg 16%
    01:00 +32°C° 0 mm 2 mps 741 mmHg 18%
    02:00 +31°C° 0 mm 3 mps 741 mmHg 19%
    03:00 +31°C° 0 mm 3 mps 741 mmHg 21%
    04:00 +30°C° 0 mm 3 mps 741 mmHg 22%
    05:00 +31°C° 0 mm 3 mps 741 mmHg 22%
    06:00 +34°C° 0 mm 3 mps 741 mmHg 22%
    07:00 +35°C° 0 mm 3 mps 742 mmHg 22%
    08:00 +37°C° 0 mm 4 mps 742 mmHg 19%
    09:00 +40°C° 0 mm 5 mps 742 mmHg 17%
    10:00 +42°C° 0 mm 5 mps 742 mmHg 14%
    11:00 +44°C° 0 mm 6 mps 742 mmHg 14%
    12:00 +44°C° 0 mm 6 mps 742 mmHg 13%
    13:00 +45°C° 0 mm 7 mps 742 mmHg 12%
    14:00 +45°C° 0 mm 7 mps 742 mmHg 12%
    15:00 +44°C° 0 mm 6 mps 742 mmHg 13%
    16:00 +44°C° 0 mm 6 mps 742 mmHg 13%
    17:00 +42°C° 0 mm 6 mps 742 mmHg 15%
    18:00 +40°C° 0 mm 5 mps 742 mmHg 17%
    19:00 +39°C° 0 mm 5 mps 742 mmHg 18%
    20:00 +38°C° 0 mm 6 mps 742 mmHg 20%
    21:00 +35°C° 0 mm 8 mps 742 mmHg 22%
    22:00 +34°C° 0 mm 9 mps 742 mmHg 24%
    23:00 +33°C° 0 mm 9 mps 743 mmHg 25%

    Mañana, 5 Junio, Viernes

    Tiempo Temperatura Precipitaciones Viento Presión Humedad
    00:00 +31°C° 0 mm 9 mps 743 mmHg 25%
    01:00 +29°C° 0 mm 9 mps 743 mmHg 26%
    02:00 +28°C° 0 mm 9 mps 744 mmHg 28%
    03:00 +27°C° 0 mm 9 mps 744 mmHg 30%
    04:00 +26°C° 0 mm 10 mps 744 mmHg 32%
    05:00 +26°C° 0 mm 10 mps 744 mmHg 30%
    06:00 +27°C° 0 mm 10 mps 745 mmHg 29%
    07:00 +27°C° 0 mm 10 mps 745 mmHg 27%
    08:00 +29°C° 0 mm 10 mps 745 mmHg 25%
    09:00 +32°C° 0 mm 10 mps 745 mmHg 23%
    10:00 +33°C° 0 mm 10 mps 745 mmHg 20%
    11:00 +36°C° 0 mm 10 mps 745 mmHg 19%
    12:00 +37°C° 0 mm 9 mps 745 mmHg 17%
    13:00 +38°C° 0 mm 9 mps 745 mmHg 16%
    14:00 +38°C° 0 mm 9 mps 745 mmHg 16%
    15:00 +38°C° 0 mm 9 mps 745 mmHg 15%
    16:00 +38°C° 0 mm 9 mps 745 mmHg 15%
    17:00 +37°C° 0 mm 9 mps 745 mmHg 16%
    18:00 +35°C° 0 mm 8 mps 745 mmHg 16%
    19:00 +33°C° 0 mm 7 mps 746 mmHg 16%
    20:00 +32°C° 0 mm 7 mps 746 mmHg 16%
    21:00 +30°C° 0 mm 7 mps 747 mmHg 16%
    22:00 +29°C° 0 mm 6 mps 747 mmHg 16%
    23:00 +28°C° 0 mm 6 mps 747 mmHg 17%

    Pasado mañana, 6 Junio, Sábado

    Tiempo Temperatura Precipitaciones Viento Presión Humedad
    00:00 +27°C° 0 mm 7 mps 747 mmHg 17%
    01:00 +26°C° 0 mm 7 mps 747 mmHg 17%
    02:00 +24°C° 0 mm 7 mps 747 mmHg 16%
    03:00 +23°C° 0 mm 7 mps 748 mmHg 16%
    04:00 +22°C° 0 mm 8 mps 748 mmHg 15%
    05:00 +23°C° 0 mm 8 mps 748 mmHg 15%
    06:00 +24°C° 0 mm 9 mps 748 mmHg 15%
    07:00 +26°C° 0 mm 10 mps 749 mmHg 14%
    08:00 +27°C° 0 mm 10 mps 749 mmHg 13%
    09:00 +29°C° 0 mm 10 mps 749 mmHg 12%
    10:00 +31°C° 0 mm 10 mps 749 mmHg 11%
    11:00 +32°C° 0 mm 10 mps 749 mmHg 10%
    12:00 +33°C° 0 mm 10 mps 749 mmHg 10%
    13:00 +34°C° 0 mm 10 mps 748 mmHg 9%
    14:00 +34°C° 0 mm 10 mps 748 mmHg 9%
    15:00 +34°C° 0 mm 10 mps 748 mmHg 9%
    16:00 +34°C° 0 mm 10 mps 748 mmHg 8%
    17:00 +33°C° 0 mm 9 mps 748 mmHg 9%
    18:00 +32°C° 0 mm 8 mps 748 mmHg 10%
    19:00 +30°C° 0 mm 7 mps 748 mmHg 11%
    20:00 +29°C° 0 mm 7 mps 748 mmHg 12%
    21:00 +28°C° 0 mm 6 mps 749 mmHg 13%
    22:00 +26°C° 0 mm 6 mps 749 mmHg 15%
    23:00 +26°C° 0 mm 6 mps 749 mmHg 16%

    7 Junio, Domingo

    Tiempo Temperatura Precipitaciones Viento Presión Humedad
    00:00 +24°C° 0 mm 7 mps 749 mmHg 17%
    01:00 +23°C° 0 mm 7 mps 749 mmHg 19%
    02:00 +22°C° 0 mm 6 mps 749 mmHg 19%
    03:00 +21°C° 0 mm 6 mps 749 mmHg 20%
    04:00 +20°C° 0 mm 6 mps 749 mmHg 20%
    05:00 +21°C° 0 mm 7 mps 749 mmHg 20%
    06:00 +23°C° 0 mm 8 mps 749 mmHg 20%
    07:00 +24°C° 0 mm 9 mps 749 mmHg 21%
    08:00 +26°C° 0 mm 9 mps 749 mmHg 19%
    09:00 +28°C° 0 mm 10 mps 749 mmHg 17%
    10:00 +29°C° 0 mm 10 mps 749 mmHg 15%
    11:00 +31°C° 0 mm 10 mps 749 mmHg 15%
    12:00 +32°C° 0 mm 10 mps 749 mmHg 15%
    13:00 +32°C° 0 mm 10 mps 749 mmHg 14%
    14:00 +33°C° 0 mm 10 mps 748 mmHg 14%
    15:00 +33°C° 0 mm 9 mps 748 mmHg 13%
    16:00 +33°C° 0 mm 9 mps 748 mmHg 13%
    17:00 +32°C° 0 mm 8 mps 748 mmHg 13%
    18:00 +30°C° 0 mm 7 mps 747 mmHg 14%
    19:00 +29°C° 0 mm 6 mps 747 mmHg 14%
    20:00 +28°C° 0 mm 6 mps 747 mmHg 15%
    21:00 +27°C° 0 mm 6 mps 747 mmHg 16%
    22:00 +26°C° 0 mm 6 mps 747 mmHg 17%
    23:00 +24°C° 0 mm 6 mps 747 mmHg 18%

    8 Junio, Lunes

    Tiempo Temperatura Precipitaciones Viento Presión Humedad
    00:00 +24°C° 0 mm 7 mps 747 mmHg 19%
    01:00 +23°C° 0 mm 7 mps 747 mmHg 20%
    02:00 +23°C° 0 mm 7 mps 747 mmHg 20%
    03:00 +22°C° 0 mm 7 mps 747 mmHg 21%
    04:00 +22°C° 0 mm 8 mps 747 mmHg 22%
    05:00 +23°C° 0 mm 9 mps 747 mmHg 21%
    06:00 +24°C° 0 mm 9 mps 747 mmHg 20%
    07:00 +27°C° 0 mm 10 mps 747 mmHg 19%
    08:00 +28°C° 0 mm 10 mps 747 mmHg 18%
    09:00 +31°C° 0 mm 11 mps 747 mmHg 17%
    10:00 +32°C° 0 mm 11 mps 747 mmHg 16%
    11:00 +33°C° 0 mm 11 mps 747 mmHg 15%
    12:00 +33°C° 0 mm 11 mps 747 mmHg 14%
    13:00 +34°C° 0 mm 11 mps 746 mmHg 14%
    14:00 +34°C° 0 mm 11 mps 746 mmHg 14%
    15:00 +34°C° 0 mm 10 mps 746 mmHg 14%
    16:00 +34°C° 0 mm 10 mps 746 mmHg 13%
    17:00 +33°C° 0 mm 9 mps 746 mmHg 14%
    18:00 +32°C° 0 mm 8 mps 746 mmHg 15%
    19:00 +30°C° 0 mm 6 mps 746 mmHg 16%
    20:00 +29°C° 0 mm 6 mps 746 mmHg 17%
    21:00 +28°C° 0 mm 6 mps 746 mmHg 18%
    22:00 +27°C° 0 mm 6 mps 746 mmHg 18%
    23:00 +26°C° 0 mm 6 mps 746 mmHg 19%

    9 Junio, Martes

    Tiempo Temperatura Precipitaciones Viento Presión Humedad
    00:00 +26°C° 0 mm 6 mps 746 mmHg 19%
    01:00 +24°C° 0 mm 6 mps 746 mmHg 19%
    02:00 +23°C° 0 mm 6 mps 746 mmHg 20%
    03:00 +23°C° 0 mm 6 mps 746 mmHg 22%
    04:00 +22°C° 0 mm 6 mps 746 mmHg 23%
    05:00 +24°C° 0 mm 7 mps 747 mmHg 21%
    06:00 +27°C° 0 mm 8 mps 747 mmHg 20%
    07:00 +28°C° 0 mm 9 mps 747 mmHg 18%
    08:00 +31°C° 0 mm 9 mps 747 mmHg 16%
    09:00 +33°C° 0 mm 9 mps 747 mmHg 15%
    10:00 +34°C° 0 mm 10 mps 747 mmHg 13%
    11:00 +36°C° 0 mm 10 mps 746 mmHg 13%
    12:00 +37°C° 0 mm 10 mps 746 mmHg 12%
    13:00 +38°C° 0 mm 10 mps 746 mmHg 12%
    14:00 +37°C° 0 mm 10 mps 746 mmHg 12%
    15:00 +37°C° 0 mm 11 mps 746 mmHg 13%
    16:00 +36°C° 0 mm 11 mps 745 mmHg 13%
    17:00 +36°C° 0.1 mm 10 mps 746 mmHg 14%
    18:00 +34°C° 0.1 mm 10 mps 746 mmHg 15%
    19:00 +33°C° 0.1 mm 9 mps 746 mmHg 15%
    20:00 +32°C° 0 mm 8 mps 746 mmHg 17%
    21:00 +30°C° 0 mm 7 mps 746 mmHg 18%
    22:00 +28°C° 0 mm 6 mps 746 mmHg 19%
    23:00 +28°C° 0 mm 7 mps 746 mmHg 20%
    Mostrar más